Tracking 31027 objects as of 19-Jul-2025
HD Live streaming from Space Station
objects crossing your sky now

METEOR 2-17 DEB

Track METEOR 2-17 DEB now!
10-day predictions


NORAD ID: 29300
Int'l Code: 1988-005P
Perigee: 866.7 km
Apogee: 909.6 km
Inclination: 82.5 °
Period: 102.6 minutes
Semi major axis: 7259 km
RCS: 0.0063 m2 (small)
Launch date: January 30, 1988
Source: Commonwealth of Independent States (former USSR) (CIS)
Launch site: PLESETSK MISSILE AND SPACE COMPLEX (PKMTR)

Note: This is SATELLITE DEBRIS
Your satellite tracking list
DELTA 1 DEB
Track 1 satellite(s)




NASA's NSSDC Master Catalog

Two Line Element Set (TLE):
1 29300U 88005P   25198.22048142  .00001896  00000-0  11927-2 0  9999
2 29300  82.5424 175.3105 0029506 228.6016 131.2619 14.03700558972059
Source of the keplerian elements: AFSPC